Visibility
15.0 15.0 15.0 15.0 15.0 15.0 15.0 15.0 15.0 15.0 15.0 15.0 15.0 15.0 15.0 15.0 15.0 15.0 15.0 15.0 15.0 15.0 15.0 15.0 15.0 15.0 15.0 15.0 15.0 15.0 15.0 14.2 0.3 0.3 15.0 15.0 15.0 14.3 13.1 0.9 0.3 2.8 10.0 0.2
15.0 15.0 15.0 15.0 15.0 15.0 15.0 15.0 15.0 15.0 15.0 15.0 15.0 15.0 15.0 15.0 15.0 15.0 15.0 15.0 15.0 15.0 15.0 15.0 15.0 15.0 15.0 15.0 15.0 6.8 6.2 11.9 2.0 1.4 7.9 15.0 1.6 15.0 15.0 11.2 13.0 15.0 8.5 0.4
15.0 15.0 14.9 15.0 15.0 15.0 15.0 15.0 15.0 15.0 15.0 15.0 15.0 15.0 15.0 15.0 15.0 15.0 15.0 15.0 15.0 15.0 15.0 15.0 15.0 15.0 15.0 15.0 15.0 15.0 14.0 15.0 7.7 0.2 5.5 0.4 6.0 15.0 15.0 8.7 0.8 0.8 0.4 0.6
15.0 15.0 15.0 15.0 15.0 15.0 15.0 15.0 15.0 15.0 15.0 15.0 15.0 15.0 15.0 15.0 15.0 15.0 15.0 15.0 15.0 15.0 15.0 15.0 15.0 15.0 15.0 15.0 15.0 15.0 15.0 15.0 15.0 15.0 15.0 15.0 15.0 15.0 15.0 15.0 4.3 2.9 0.3 2.2
15.0 15.0 15.0 15.0 15.0 15.0 15.0 15.0 15.0 15.0 15.0 15.0 15.0 15.0 15.0 15.0 15.0 15.0 15.0 15.0 15.0 15.0 15.0 15.0 15.0 15.0 15.0 15.0 15.0 15.0 15.0 12.6 15.0 15.0 15.0 15.0 15.0 15.0 15.0 15.0 15.0 15.0 15.0 1.4
15.0 15.0 15.0 15.0 15.0 15.0 15.0 15.0 15.0 15.0 14.9 15.0 15.0 15.0 15.0 15.0 15.0 15.0 15.0 15.0 15.0 15.0 15.0 15.0 15.0 15.0 15.0 15.0 15.0 15.0 15.0 12.1 15.0 0.1 15.0 15.0 15.0 15.0 15.0 15.0 15.0 15.0 9.8 7.5
15.0 15.0 15.0 7.9 15.0 15.0 15.0 15.0 15.0 8.4 8.9 15.0 15.0 15.0 15.0 15.0 15.0 15.0 15.0 15.0 15.0 15.0 15.0 15.0 15.0 15.0 15.0 15.0 15.0 15.0 15.0 15.0 15.0 15.0 15.0 3.3 15.0 15.0 15.0 15.0 15.0 15.0 15.0 15.0
15.0 12.1 15.0 9.4 15.0 15.0 15.0 15.0 15.0 12.7 3.4 15.0 15.0 15.0 15.0 15.0 15.0 15.0 15.0 15.0 15.0 15.0 15.0 15.0 15.0 15.0 15.0 15.0 15.0 15.0 15.0 15.0 15.0 15.0 15.0 15.0 15.0 15.0 15.0 15.0 15.0 15.0 15.0 15.0
15.0 11.4 14.9 12.3 15.0 15.0 15.0 15.0 15.0 15.0 1.1 4.8 15.0 15.0 15.0 15.0 15.0 15.0 15.0 15.0 15.0 15.0 15.0 15.0 15.0 15.0 15.0 15.0 15.0 15.0 15.0 15.0 15.0 15.0 15.0 15.0 15.0 15.0 15.0 15.0 14.0 15.0 15.0 15.0
15.0 14.6 10.4 13.6 15.0 15.0 15.0 15.0 15.0 15.0 1.7 15.0 15.0 15.0 15.0 15.0 15.0 15.0 15.0 15.0 15.0 15.0 15.0 15.0 15.0 15.0 15.0 15.0 15.0 15.0 15.0 15.0 15.0 15.0 15.0 15.0 15.0 15.0 15.0 15.0 8.2 15.0 15.0 15.0
15.0 15.0 14.9 14.8 15.0 15.0 15.0 15.0 15.0 15.0 6.7 15.0 15.0 15.0 15.0 15.0 15.0 15.0 15.0 15.0 15.0 15.0 14.0 15.0 15.0 11.1 15.0 15.0 15.0 15.0 15.0 15.0 15.0 15.0 15.0 15.0 15.0 15.0 15.0 15.0 15.0 15.0 15.0 15.0
15.0 15.0 15.0 15.0 15.0 15.0 15.0 13.2 15.0 15.0 10.1 10.7 15.0 15.0 15.0 15.0 15.0 15.0 15.0 15.0 15.0 15.0 13.4 1.2 1.6 2.4 0.3 15.0 15.0 15.0 15.0 15.0 14.5 15.0 15.0 15.0 15.0 15.0 15.0 15.0 15.0 13.7 15.0 15.0
15.0 15.0 15.0 15.0 15.0 15.0 15.0 15.0 15.0 15.0 15.0 13.3 15.0 15.0 15.0 15.0 15.0 15.0 10.3 15.0 15.0 15.0 14.1 6.6 0.2 2.3 13.7 15.0 0.2 15.0 15.0 15.0 15.0 15.0 15.0 15.0 15.0 15.0 15.0 15.0 7.0 15.0 15.0 15.0
15.0 12.0 15.0 15.0 15.0 15.0 15.0 15.0 15.0 15.0 15.0 12.7 12.1 15.0 15.0 15.0 15.0 15.0 15.0 15.0 15.0 15.0 14.2 0.2 0.2 0.2 15.0 9.0 13.8 15.0 15.0 15.0 15.0 15.0 15.0 15.0 15.0 10.0 4.1 4.8 15.0 15.0 15.0 15.0
15.0 14.4 15.0 15.0 15.0 15.0 15.0 15.0 15.0 15.0 9.0 3.3 15.0 15.0 15.0 15.0 15.0 15.0 15.0 15.0 8.3 0.2 0.2 0.9 0.2 7.1 9.0 11.7 14.2 15.0 15.0 15.0 15.0 14.7 14.3 6.6 3.6 4.0 15.0 0.9 12.8 15.0 15.0 15.0
15.0 15.0 15.0 15.0 15.0 15.0 15.0 13.3 8.1 15.0 15.0 10.9 2.0 15.0 15.0 15.0 15.0 15.0 15.0 15.0 0.4 0.2 0.2 0.3 4.2 14.9 4.4 3.9 3.9 15.0 15.0 15.0 15.0 15.0 5.0 10.3 13.3 4.1 0.3 0.3 1.4 15.0 6.1 4.9
15.0 15.0 15.0 14.1 15.0 15.0 15.0 5.9 4.2 15.0 15.0 14.5 8.7 15.0 15.0 15.0 15.0 15.0 12.5 15.0 2.3 0.4 5.2 1.7 5.4 5.6 4.5 13.8 4.3 15.0 15.0 15.0 15.0 15.0 7.8 6.2 1.8 0.2 0.4 2.4 15.0 7.7 6.4 11.8
15.0 15.0 15.0 15.0 15.0 15.0 15.0 8.6 15.0 15.0 15.0 15.0 7.5 15.0 15.0 15.0 9.0 0.4 14.5 1.5 15.0 14.3 8.2 9.6 2.1 10.9 12.1 6.3 15.0 15.0 15.0 15.0 15.0 15.0 15.0 2.3 0.2 0.2 0.2 13.6 15.0 11.8 8.5 15.0
15.0 15.0 15.0 15.0 15.0 1.9 0.0 12.6 15.0 15.0 15.0 7.1 15.0 7.9 0.1 15.0 15.0 15.0 5.5 12.1 0.3 12.8 2.0 7.5 8.7 3.2 5.4 4.8 9.5 15.0 15.0 2.1 1.5 6.1 1.4 0.5 0.5 0.5 8.8 15.0 15.0 4.1 15.0 15.0
15.0 14.7 7.0 0.5 0.0 9.0 13.1 15.0 15.0 15.0 15.0 15.0 9.3 15.0 0.1 0.4 0.1 0.1 0.2 14.8 2.0 0.2 1.2 14.9 3.3 5.2 15.0 15.0 15.0 15.0 15.0 4.1 1.4 1.0 14.5 0.7 3.8 5.8 15.0 15.0 15.0 15.0 15.0 15.0
15.0 0.3 0.1 0.0 15.0 15.0 15.0 15.0 15.0 10.8 10.2 7.2 14.4 0.5 0.4 2.0 0.2 0.2 2.7 3.0 7.1 0.3 2.2 9.9 6.8 14.9 0.5 8.7 5.8 15.0 6.9 4.0 2.0 0.6 0.9 0.7 1.1 15.0 15.0 15.0 15.0 15.0 15.0 15.0
6.5 0.1 1.3 15.0 15.0 15.0 15.0 8.8 7.0 0.6 0.1 3.9 0.6 0.2 5.2 3.8 6.1 0.3 8.0 2.0 8.2 2.0 15.0 7.0 13.6 10.2 2.7 5.6 5.2 9.9 10.5 2.1 2.6 2.3 1.0 13.9 15.0 15.0 15.0 15.0 15.0 15.0 15.0 15.0
15.0 15.0 15.0 15.0 15.0 15.0 2.6 0.7 0.4 0.3 1.2 0.1 0.2 0.1 1.0 3.2 15.0 5.4 3.5 4.2 2.5 15.0 2.5 11.1 15.0 13.5 3.2 4.1 13.3 6.1 15.0 14.0 0.6 1.5 15.0 15.0 15.0 15.0 15.0 15.0 15.0 15.0 15.0 15.0
14.4 14.6 14.2 6.3 7.3 0.6 0.1 0.1 0.1 0.2 0.3 0.5 0.3 0.7 4.3 15.0 5.8 4.5 3.5 4.9 9.0 3.2 0.7 0.9 4.0 1.0 2.2 4.4 15.0 4.8 5.6 14.9 12.1 15.0 15.0 15.0 15.0 15.0 15.0 15.0 15.0 15.0 15.0 15.0
15.0 15.0 3.5 4.3 4.0 2.2 1.0 1.5 1.5 0.3 8.0 0.4 0.5 1.2 11.0 15.0 6.5 15.0 14.8 8.8 8.8 2.4 1.5 0.5 0.5 0.3 2.4 3.7 5.8 3.9 3.7 3.3 5.2 15.0 15.0 15.0 15.0 15.0 15.0 15.0 15.0 15.0 15.0 15.0
15.0 15.0 11.8 15.0 4.9 9.9 5.2 10.4 2.3 9.6 10.7 3.0 1.5 2.1 3.7 4.2 2.9 15.0 2.9 4.1 2.0 0.2 0.2 2.1 0.7 9.7 1.8 1.4 4.1 7.7 12.8 6.9 15.0 15.0 15.0 15.0 15.0 15.0 15.0 15.0 15.0 15.0 15.0 15.0
15.0 3.9 13.3 4.6 0.5 0.2 0.3 4.2 1.1 15.0 0.8 0.7 0.9 2.2 0.6 2.0 4.4 6.1 3.7 0.3 0.1 0.7 2.7 11.2 15.0 14.1 1.5 4.0 12.6 15.0 15.0 15.0 15.0 15.0 15.0 15.0 15.0 15.0 15.0 5.4 15.0 15.0 15.0 15.0